DLH411 KJFK-EDDM

Flight info

Callsign DLH411
Flight time N/A
Altitude 39000
Route N0478F390 JFK5 BETTE DCT ACK DCT BRADD N427A ELSIR NATV 50N050W/M085F400 NATV GISTI/N0490F410 DCT SLANY DCT OKSAW DCT KONAN UL607 FERDI DCT REMBA UL607 SPI DCT MOVUM/N0467F390 T109 UNEDE/N0439F370 T109 SOSHE/N0424F350 T109 HAREM/N0395F310 T104 ELMOX/N0383F270 T104 ROKIL ROKIL1B
Aircraft A359/H-SADE2E3GHIJ1J2J3J4J5M1P2RWXYZ/LB1D1

Departure

Time 2026-05-05 20:15
Airport John F. Kennedy International Airport (KJFK)

Arrival

Time N/A
Airport Munich Airport (EDDM)
Time Latitude Longitude Altitude Speed Heading
2026-05-05 19:32 40.64162 -73.79143 29 ft 0 kts 307°
2026-05-05 19:55 40.64157 -73.79136 28 ft 4 kts 297°
2026-05-05 19:56 40.64151 -73.79119 28 ft 4 kts 268°
2026-05-05 19:56 40.64145 -73.79087 25 ft 4 kts 290°
2026-05-05 19:56 40.64138 -73.79060 25 ft 4 kts 276°
2026-05-05 19:56 40.64140 -73.79025 24 ft 4 kts 251°
2026-05-05 19:57 40.64143 -73.79012 24 ft 1 kts 250°
2026-05-05 20:00 40.64136 -73.79037 26 ft 5 kts 250°
2026-05-05 20:01 40.64120 -73.79079 27 ft 6 kts 233°
2026-05-05 20:01 40.64085 -73.79124 27 ft 8 kts 224°
2026-05-05 20:01 40.64039 -73.79183 30 ft 11 kts 224°
2026-05-05 20:01 40.64007 -73.79225 27 ft 4 kts 224°
2026-05-05 20:02 40.63982 -73.79265 26 ft 7 kts 242°
2026-05-05 20:02 40.63988 -73.79315 27 ft 6 kts 298°
2026-05-05 20:02 40.64007 -73.79357 29 ft 6 kts 301°
2026-05-05 20:02 40.64029 -73.79404 31 ft 6 kts 301°
2026-05-05 20:03 40.64056 -73.79459 31 ft 8 kts 309°
2026-05-05 20:03 40.64107 -73.79502 30 ft 9 kts 339°
2026-05-05 20:03 40.64167 -73.79506 27 ft 8 kts
2026-05-05 20:03 40.64221 -73.79502 29 ft 7 kts
2026-05-05 20:04 40.64266 -73.79498 31 ft 6 kts
2026-05-05 20:04 40.64306 -73.79495 32 ft 6 kts
2026-05-05 20:04 40.64346 -73.79492 32 ft 7 kts
2026-05-05 20:04 40.64397 -73.79492 32 ft 8 kts 358°
2026-05-05 20:05 40.64466 -73.79498 30 ft 15 kts 356°
2026-05-05 20:05 40.64554 -73.79509 31 ft 12 kts 352°
2026-05-05 20:05 40.64634 -73.79554 31 ft 13 kts 325°
2026-05-05 20:05 40.64718 -73.79633 28 ft 17 kts 324°
2026-05-05 20:06 40.64826 -73.79701 28 ft 18 kts 352°
2026-05-05 20:06 40.64954 -73.79703 29 ft 19 kts
2026-05-05 20:06 40.65068 -73.79628 28 ft 20 kts 53°
2026-05-05 20:06 40.65139 -73.79468 27 ft 21 kts 60°
2026-05-05 20:07 40.65201 -73.79317 27 ft 19 kts 69°
2026-05-05 20:07 40.65190 -73.79145 27 ft 20 kts 107°
2026-05-05 20:07 40.65150 -73.78977 28 ft 19 kts 107°
2026-05-05 20:07 40.65140 -73.78813 29 ft 18 kts 82°
2026-05-05 20:08 40.65185 -73.78660 30 ft 19 kts 62°
2026-05-05 20:08 40.65250 -73.78505 30 ft 20 kts 62°
2026-05-05 20:08 40.65245 -73.78335 31 ft 19 kts 118°
2026-05-05 20:08 40.65177 -73.78183 29 ft 20 kts 121°
2026-05-05 20:09 40.65104 -73.78021 28 ft 21 kts 121°
2026-05-05 20:09 40.65026 -73.77849 30 ft 23 kts 121°
2026-05-05 20:09 40.64945 -73.77670 31 ft 22 kts 121°
2026-05-05 20:09 40.64864 -73.77494 30 ft 22 kts 121°
2026-05-05 20:10 40.64803 -73.77357 28 ft 14 kts 121°
2026-05-05 20:10 40.64749 -73.77239 27 ft 16 kts 121°
2026-05-05 20:10 40.64682 -73.77122 26 ft 16 kts 143°
2026-05-05 20:10 40.64616 -73.77093 32 ft 4 kts 173°
2026-05-05 20:11 40.64590 -73.77084 28 ft 4 kts 146°
2026-05-05 20:11 40.64576 -73.77043 30 ft 6 kts 95°
2026-05-05 20:11 40.64577 -73.76969 27 ft 10 kts 80°
2026-05-05 20:11 40.64620 -73.76903 27 ft 10 kts 32°
2026-05-05 20:12 40.64680 -73.76854 26 ft 11 kts 31°
2026-05-05 20:12 40.64749 -73.76800 27 ft 12 kts 30°
2026-05-05 20:12 40.64817 -73.76747 27 ft 9 kts 31°
2026-05-05 20:12 40.64869 -73.76706 30 ft 8 kts 30°
2026-05-05 20:13 40.64920 -73.76667 30 ft 9 kts 30°
2026-05-05 20:13 40.64981 -73.76620 30 ft 11 kts 30°
2026-05-05 20:13 40.65049 -73.76567 31 ft 11 kts 31°
2026-05-05 20:13 40.65097 -73.76494 32 ft 10 kts 92°
2026-05-05 20:14 40.65070 -73.76407 30 ft 11 kts 121°
2026-05-05 20:14 40.65012 -73.76369 28 ft 10 kts 179°
2026-05-05 20:14 40.64965 -73.76396 28 ft 7 kts 214°
2026-05-05 20:14 40.64916 -73.76438 27 ft 9 kts 212°
2026-05-05 20:15 40.64793 -73.76535 26 ft 38 kts 210°
2026-05-05 20:15 40.64390 -73.76850 27 ft 97 kts 210°
2026-05-05 20:15 40.63671 -73.77408 41 ft 144 kts 214°
2026-05-05 20:15 40.62854 -73.78114 708 ft 135 kts 207°
2026-05-05 20:16 40.62048 -73.78739 1266 ft 141 kts 208°
2026-05-05 20:16 40.61139 -73.79390 1463 ft 156 kts 208°
2026-05-05 20:16 40.60132 -73.80148 1628 ft 178 kts 210°
2026-05-05 20:16 40.59030 -73.81043 1836 ft 194 kts 212°
2026-05-05 20:17 40.57789 -73.81898 2170 ft 208 kts 199°
2026-05-05 20:17 40.56316 -73.81999 2633 ft 221 kts 171°
2026-05-05 20:17 40.54931 -73.80955 3011 ft 244 kts 140°
2026-05-05 20:17 40.54061 -73.78951 3399 ft 265 kts 110°
2026-05-05 20:18 40.53916 -73.76516 3900 ft 274 kts 91°
2026-05-05 20:18 40.54017 -73.73966 4280 ft 287 kts 89°
2026-05-05 20:18 40.54208 -73.71279 4631 ft 299 kts 87°
2026-05-05 20:18 40.54437 -73.68527 5141 ft 304 kts 87°
2026-05-05 20:19 40.54647 -73.65777 5710 ft 306 kts 88°
2026-05-05 20:19 40.54800 -73.62978 6339 ft 305 kts 90°
2026-05-05 20:19 40.54959 -73.60169 6829 ft 311 kts 87°
2026-05-05 20:19 40.55187 -73.57315 7318 ft 316 kts 85°
2026-05-05 20:20 40.55486 -73.54431 7827 ft 320 kts 83°
2026-05-05 20:20 40.55853 -73.51529 8356 ft 324 kts 81°
2026-05-05 20:20 40.56285 -73.48638 8900 ft 328 kts 79°
2026-05-05 20:20 40.56700 -73.45671 9381 ft 331 kts 89°
2026-05-05 20:21 40.56574 -73.42656 9915 ft 330 kts 102°
2026-05-05 20:21 40.56189 -73.39640 10274 ft 338 kts 104°
2026-05-05 20:21 40.55819 -73.36582 10491 ft 353 kts 101°
2026-05-05 20:21 40.55560 -73.33278 10727 ft 367 kts 97°
2026-05-05 20:22 40.55443 -73.29858 10941 ft 380 kts 93°
2026-05-05 20:22 40.55436 -73.26328 11164 ft 392 kts 91°
2026-05-05 20:22 40.55493 -73.22697 11430 ft 401 kts 90°
2026-05-05 20:22 40.55578 -73.19004 11833 ft 405 kts 89°
2026-05-05 20:23 40.55665 -73.15334 12317 ft 407 kts 89°
2026-05-05 20:23 40.55721 -73.12866 12611 ft 409 kts 89°
2026-05-05 20:23 40.55797 -73.09110 13114 ft 411 kts 89°
2026-05-05 20:23 40.55908 -73.04165 13719 ft 413 kts 86°
2026-05-05 20:24 40.56139 -73.01626 13995 ft 415 kts 79°
2026-05-05 20:24 40.56807 -72.97925 14415 ft 416 kts 74°
2026-05-05 20:24 40.57620 -72.94312 14845 ft 418 kts 72°
2026-05-05 20:24 40.58531 -72.90665 15234 ft 420 kts 70°
2026-05-05 20:25 40.59487 -72.87006 15667 ft 421 kts 70°
2026-05-05 20:25 40.60453 -72.83351 16116 ft 422 kts 70°
2026-05-05 20:25 40.61730 -72.78485 16705 ft 424 kts 70°
2026-05-05 20:25 40.62364 -72.76045 16984 ft 425 kts 70°
2026-05-05 20:26 40.63316 -72.72349 17385 ft 427 kts 71°
2026-05-05 20:26 40.64268 -72.68624 17786 ft 430 kts 71°
2026-05-05 20:26 40.65221 -72.64875 18201 ft 431 kts 71°
2026-05-05 20:26 40.66162 -72.61162 18527 ft 434 kts 71°
2026-05-05 20:27 40.67119 -72.57379 18887 ft 435 kts 71°
2026-05-05 20:27 40.68077 -72.53586 19207 ft 437 kts 71°
2026-05-05 20:27 40.69038 -72.49780 19534 ft 439 kts 71°
2026-05-05 20:27 40.70004 -72.45946 19850 ft 441 kts 71°
2026-05-05 20:28 40.70974 -72.42090 20187 ft 443 kts 71°
2026-05-05 20:28 40.71947 -72.38219 20500 ft 445 kts 71°
2026-05-05 20:28 40.72922 -72.34330 20831 ft 447 kts 71°
2026-05-05 20:28 40.73887 -72.30479 21130 ft 449 kts 71°
2026-05-05 20:29 40.74867 -72.26561 21448 ft 451 kts 71°
2026-05-05 20:29 40.75853 -72.22613 21719 ft 453 kts 71°
2026-05-05 20:29 40.76842 -72.18646 22026 ft 455 kts 72°
2026-05-05 20:29 40.77822 -72.14708 22333 ft 457 kts 72°
2026-05-05 20:30 40.78817 -72.10701 22625 ft 459 kts 72°
2026-05-05 20:30 40.79827 -72.06688 22880 ft 461 kts 70°
2026-05-05 20:30 40.80877 -72.02653 23131 ft 463 kts 69°
2026-05-05 20:30 40.81925 -71.98623 23411 ft 465 kts 69°
2026-05-05 20:31 40.82938 -71.94669 23658 ft 467 kts 70°
2026-05-05 20:31 40.83970 -71.90572 23889 ft 468 kts 70°
2026-05-05 20:31 40.84986 -71.86483 24124 ft 469 kts 70°
2026-05-05 20:31 40.86000 -71.82367 24373 ft 470 kts 70°
2026-05-05 20:32 40.87008 -71.78251 24612 ft 471 kts 70°
2026-05-05 20:32 40.88019 -71.74111 24858 ft 472 kts 70°
2026-05-05 20:32 40.89026 -71.69977 25105 ft 473 kts 70°
2026-05-05 20:32 40.90037 -71.65824 25351 ft 474 kts 70°
2026-05-05 20:33 40.91036 -71.61717 25596 ft 475 kts 70°
2026-05-05 20:33 40.92047 -71.57555 25852 ft 476 kts 70°
2026-05-05 20:33 40.93296 -71.53490 26105 ft 476 kts 60°
2026-05-05 20:33 40.94969 -71.49719 26309 ft 476 kts 54°
2026-05-05 20:34 40.96791 -71.46081 26547 ft 477 kts 52°
2026-05-05 20:34 40.98692 -71.42481 26822 ft 477 kts 51°
2026-05-05 20:34 41.00622 -71.38896 27104 ft 478 kts 51°
2026-05-05 20:34 41.02558 -71.35300 27383 ft 479 kts 51°
2026-05-05 20:35 41.04486 -71.31689 27669 ft 480 kts 51°
2026-05-05 20:35 41.06382 -71.28108 27956 ft 482 kts 51°
2026-05-05 20:35 41.08303 -71.24454 28253 ft 483 kts 51°
2026-05-05 20:35 41.10226 -71.20778 28443 ft 486 kts 51°
2026-05-05 20:36 41.12154 -71.17080 28717 ft 487 kts 51°
2026-05-05 20:36 41.14075 -71.13385 29120 ft 486 kts 51°
2026-05-05 20:36 41.15987 -71.09705 29579 ft 483 kts 51°
2026-05-05 20:36 41.17894 -71.06031 30048 ft 481 kts 51°
2026-05-05 20:37 41.19791 -71.02378 30397 ft 480 kts 51°
2026-05-05 20:37 41.21677 -70.98744 30692 ft 480 kts 51°
2026-05-05 20:37 41.23579 -70.95078 30987 ft 481 kts 51°
2026-05-05 20:37 41.25475 -70.91416 31303 ft 481 kts 51°
2026-05-05 20:38 41.27344 -70.87800 31616 ft 481 kts 51°
2026-05-05 20:38 41.29240 -70.84133 31874 ft 482 kts 52°
2026-05-05 20:38 41.31138 -70.80456 32159 ft 482 kts 52°
2026-05-05 20:38 41.33045 -70.76757 32298 ft 486 kts 52°
2026-05-05 20:39 41.34961 -70.73035 32408 ft 490 kts 52°
2026-05-05 20:39 41.36806 -70.69444 32519 ft 494 kts 52°
2026-05-05 20:39 41.38815 -70.65526 32631 ft 498 kts 52°
2026-05-05 20:40 41.42704 -70.57925 32818 ft 505 kts 52°
2026-05-05 20:40 41.44676 -70.54059 32936 ft 509 kts 52°
2026-05-05 20:40 41.46663 -70.50162 33051 ft 511 kts 53°
2026-05-05 20:40 41.48666 -70.46226 33217 ft 513 kts 53°
2026-05-05 20:41 41.50667 -70.42290 33474 ft 512 kts 53°
2026-05-05 20:41 41.52667 -70.38353 33734 ft 512 kts 53°
2026-05-05 20:41 41.54640 -70.34464 33971 ft 512 kts 53°
2026-05-05 20:41 41.56639 -70.30524 34193 ft 511 kts 53°
2026-05-05 20:42 41.58632 -70.26591 34399 ft 511 kts 53°
2026-05-05 20:42 41.60626 -70.22651 34595 ft 511 kts 53°
2026-05-05 20:42 41.62587 -70.18772 34797 ft 511 kts 53°
2026-05-05 20:42 41.64572 -70.14838 34982 ft 511 kts 53°
2026-05-05 20:43 41.66564 -70.10885 35233 ft 511 kts 53°
2026-05-05 20:43 41.68523 -70.06993 35407 ft 511 kts 53°
2026-05-05 20:43 41.70513 -70.03033 35562 ft 512 kts 53°
2026-05-05 20:43 41.72496 -69.99080 35768 ft 512 kts 53°
2026-05-05 20:44 41.74457 -69.95165 35968 ft 512 kts 53°
2026-05-05 20:44 41.76447 -69.91188 36168 ft 512 kts 53°
2026-05-05 20:44 41.78432 -69.87214 36338 ft 512 kts 53°
2026-05-05 20:44 41.80411 -69.83247 36577 ft 510 kts 54°
2026-05-05 20:45 41.84343 -69.75350 36862 ft 512 kts 54°
2026-05-05 20:45 41.86323 -69.71366 36999 ft 512 kts 54°
2026-05-05 20:45 41.88298 -69.67384 37165 ft 512 kts 54°
2026-05-05 20:46 41.90247 -69.63452 37342 ft 512 kts 54°
2026-05-05 20:46 41.92221 -69.59464 37475 ft 512 kts 54°
2026-05-05 20:46 41.94191 -69.55479 37635 ft 512 kts 54°
2026-05-05 20:46 41.96169 -69.51472 37802 ft 511 kts 54°
2026-05-05 20:47 41.98138 -69.47479 37951 ft 511 kts 54°
2026-05-05 20:47 42.00101 -69.43492 38028 ft 513 kts 54°
2026-05-05 20:47 42.02045 -69.39539 38159 ft 513 kts 54°
2026-05-05 20:47 42.04010 -69.35539 38305 ft 512 kts 54°
2026-05-05 20:48 42.05971 -69.31541 38435 ft 512 kts 54°
2026-05-05 20:48 42.07938 -69.27524 38548 ft 512 kts 54°
2026-05-05 20:48 42.09901 -69.23513 38654 ft 512 kts 54°
2026-05-05 20:48 42.11843 -69.19537 38736 ft 513 kts 54°
2026-05-05 20:49 42.15766 -69.11492 38898 ft 513 kts 54°
2026-05-05 20:49 42.19709 -69.03388 38944 ft 516 kts 54°
2026-05-05 20:50 42.23620 -68.95328 38954 ft 516 kts 54°
2026-05-05 20:50 42.27558 -68.87189 38949 ft 517 kts 54°
2026-05-05 20:51 42.31463 -68.79096 38952 ft 516 kts 54°
2026-05-05 20:51 42.35384 -68.70948 38962 ft 516 kts 54°
2026-05-05 20:52 42.39295 -68.62799 38966 ft 516 kts 54°
2026-05-05 20:52 42.43182 -68.54678 38956 ft 517 kts 54°
2026-05-05 20:53 42.47091 -68.46490 38947 ft 516 kts 54°
2026-05-05 20:53 42.50990 -68.38300 38957 ft 516 kts 54°
2026-05-05 20:54 42.54862 -68.30142 38961 ft 517 kts 54°
2026-05-05 20:54 42.58757 -68.21916 38953 ft 517 kts 54°
2026-05-05 20:55 42.62621 -68.13732 38958 ft 517 kts 54°
2026-05-05 20:55 42.66501 -68.05491 38954 ft 516 kts 54°
2026-05-05 20:56 42.70367 -67.97256 38948 ft 516 kts 54°
2026-05-05 20:56 42.74206 -67.89056 38956 ft 516 kts 54°
2026-05-05 20:57 42.78062 -67.80800 38956 ft 516 kts 55°
2026-05-05 20:57 42.81890 -67.72580 38959 ft 517 kts 55°
2026-05-05 20:58 42.85748 -67.64271 38953 ft 517 kts 55°
2026-05-05 20:58 42.89568 -67.56020 38964 ft 517 kts 55°
2026-05-05 20:59 42.93409 -67.47702 38965 ft 517 kts 55°
2026-05-05 20:59 42.97251 -67.39359 38954 ft 517 kts 55°
2026-05-05 21:00 43.01059 -67.31064 38958 ft 518 kts 55°
2026-05-05 21:00 43.04881 -67.22717 38967 ft 517 kts 55°
2026-05-05 21:01 43.08674 -67.14409 38960 ft 517 kts 55°
2026-05-05 21:01 43.12488 -67.06033 38964 ft 517 kts 56°
2026-05-05 21:02 43.16285 -66.97720 38966 ft 516 kts 53°
2026-05-05 21:02 43.20519 -66.89781 38969 ft 515 kts 49°
2026-05-05 21:03 43.24892 -66.82065 38970 ft 515 kts 49°
2026-05-05 21:03 43.29244 -66.74217 38959 ft 516 kts 50°
2026-05-05 21:04 43.33535 -66.66311 38961 ft 516 kts 50°
2026-05-05 21:04 43.37779 -66.58424 38953 ft 514 kts 51°
2026-05-05 21:05 43.42037 -66.50488 38951 ft 514 kts 51°
2026-05-05 21:05 43.46260 -66.42605 38974 ft 514 kts 51°
2026-05-05 21:06 43.50498 -66.34675 38964 ft 513 kts 51°
2026-05-05 21:06 43.54736 -66.26727 38966 ft 513 kts 51°
2026-05-05 21:07 43.58937 -66.18825 38981 ft 513 kts 51°
2026-05-05 21:07 43.63158 -66.10863 38964 ft 513 kts 51°
2026-05-05 21:08 43.67365 -66.02906 38960 ft 512 kts 51°
2026-05-05 21:08 43.71538 -65.94992 38959 ft 512 kts 51°
2026-05-05 21:09 43.75734 -65.87015 38984 ft 512 kts 51°
2026-05-05 21:09 43.79906 -65.79058 38976 ft 509 kts 51°
2026-05-05 21:10 43.84060 -65.71114 38986 ft 509 kts 51°
2026-05-05 21:10 43.88110 -65.63351 38995 ft 509 kts 51°
2026-05-05 21:11 43.92222 -65.55446 39008 ft 509 kts 51°
2026-05-05 21:11 43.96380 -65.47433 39002 ft 510 kts 51°
2026-05-05 21:12 44.00500 -65.39469 39001 ft 510 kts 51°
2026-05-05 21:12 44.04647 -65.31433 38998 ft 510 kts 51°
2026-05-05 21:13 44.08750 -65.23458 39000 ft 510 kts 51°
2026-05-05 21:13 44.12882 -65.15407 39002 ft 510 kts 51°
2026-05-05 21:14 44.16988 -65.07382 39004 ft 511 kts 51°
2026-05-05 21:14 44.20443 -65.00613 38993 ft 511 kts 51°
2026-05-05 21:15 44.24539 -64.92569 38994 ft 511 kts 51°
2026-05-05 21:15 44.28659 -64.84453 38981 ft 511 kts 51°
2026-05-05 21:16 44.32746 -64.76381 38983 ft 511 kts 51°
2026-05-05 21:16 44.36846 -64.68259 38966 ft 510 kts 51°
2026-05-05 21:17 44.40911 -64.60186 38960 ft 510 kts 51°
2026-05-05 21:17 44.45002 -64.52039 38960 ft 510 kts 51°
2026-05-05 21:18 44.49064 -64.43926 38948 ft 510 kts 51°
2026-05-05 21:18 44.53136 -64.35769 38947 ft 510 kts 51°
2026-05-05 21:19 44.57177 -64.27653 38958 ft 509 kts 51°
2026-05-05 21:19 44.61233 -64.19482 38959 ft 509 kts 51°
2026-05-05 21:20 44.65285 -64.11297 38957 ft 509 kts 51°
2026-05-05 21:20 44.69301 -64.03162 38961 ft 509 kts 51°
2026-05-05 21:21 44.73344 -63.94947 38969 ft 509 kts 51°
2026-05-05 21:21 44.77384 -63.86715 38972 ft 510 kts 51°
2026-05-05 21:22 44.81390 -63.78531 38969 ft 511 kts 51°
2026-05-05 21:22 44.85419 -63.70277 38963 ft 511 kts 51°
2026-05-05 21:23 44.89439 -63.62015 38970 ft 511 kts 51°
2026-05-05 21:23 44.93464 -63.53721 38965 ft 512 kts 51°
2026-05-05 21:24 44.97490 -63.45400 38959 ft 511 kts 52°
2026-05-05 21:24 45.01466 -63.37158 38968 ft 510 kts 52°
2026-05-05 21:25 45.05466 -63.28841 38977 ft 511 kts 51°
2026-05-05 21:25 45.09463 -63.20510 38974 ft 511 kts 51°
2026-05-05 21:26 45.13427 -63.12221 38967 ft 511 kts 52°
2026-05-05 21:26 45.17415 -63.03856 38970 ft 512 kts 51°
2026-05-05 21:27 45.21406 -62.95463 38979 ft 513 kts 52°
2026-05-05 21:27 45.25371 -62.87099 38973 ft 513 kts 52°
2026-05-05 21:28 45.29360 -62.78660 38967 ft 513 kts 52°
2026-05-05 21:28 45.33338 -62.70217 38960 ft 514 kts 52°
2026-05-05 21:29 45.37290 -62.61808 38968 ft 514 kts 52°
2026-05-05 21:29 45.41261 -62.53332 38961 ft 514 kts 52°
2026-05-05 21:30 45.45221 -62.44852 38965 ft 514 kts 52°
2026-05-05 21:30 45.49175 -62.36361 38951 ft 513 kts 52°
2026-05-05 21:31 45.53102 -62.27904 38963 ft 513 kts 52°
2026-05-05 21:31 45.57047 -62.19381 38968 ft 513 kts 52°
2026-05-05 21:32 45.60984 -62.10851 38954 ft 514 kts 52°
2026-05-05 21:32 45.64891 -62.02360 38939 ft 514 kts 52°
2026-05-05 21:33 45.68821 -61.93793 38956 ft 514 kts 52°
2026-05-05 21:33 45.72749 -61.85204 38953 ft 515 kts 52°
2026-05-05 21:34 45.76647 -61.76658 38950 ft 515 kts 52°
2026-05-05 21:34 45.80575 -61.68015 38950 ft 515 kts 52°
2026-05-05 21:35 45.84459 -61.59446 38958 ft 514 kts 53°
2026-05-05 21:35 45.88362 -61.50809 38948 ft 514 kts 53°
2026-05-05 21:36 45.92224 -61.42235 38944 ft 514 kts 53°
2026-05-05 21:36 45.96105 -61.33591 38943 ft 515 kts 53°
2026-05-05 21:37 45.99985 -61.24924 38973 ft 514 kts 53°
2026-05-05 21:37 46.03858 -61.16244 38948 ft 515 kts 53°
2026-05-05 21:38 46.07708 -61.07592 38949 ft 516 kts 53°
2026-05-05 21:38 46.11581 -60.98858 38943 ft 516 kts 53°
2026-05-05 21:39 46.15439 -60.90133 38950 ft 515 kts 53°
2026-05-05 21:39 46.19268 -60.81446 38951 ft 515 kts 53°
2026-05-05 21:40 46.23109 -60.72704 38942 ft 515 kts 53°
2026-05-05 21:40 46.26922 -60.63998 38935 ft 515 kts 53°
2026-05-05 21:41 46.30767 -60.55192 38930 ft 517 kts 53°
2026-05-05 21:41 46.34585 -60.46422 38933 ft 518 kts 53°
2026-05-05 21:42 46.38427 -60.37570 38927 ft 518 kts 53°
2026-05-05 21:42 46.42268 -60.28688 38932 ft 518 kts 53°
2026-05-05 21:43 46.46100 -60.19801 38927 ft 521 kts 53°
2026-05-05 21:43 46.49850 -60.11073 38928 ft 521 kts 53°
2026-05-05 21:44 46.53695 -60.02097 38935 ft 521 kts 53°
2026-05-05 21:44 46.57494 -59.93199 38940 ft 522 kts 53°
2026-05-05 21:45 46.61306 -59.84242 38947 ft 522 kts 53°
2026-05-05 21:45 46.65124 -59.75242 38949 ft 522 kts 54°
2026-05-05 21:46 46.68929 -59.66244 38949 ft 522 kts 54°
2026-05-05 21:46 46.72734 -59.57217 38950 ft 523 kts 54°
2026-05-05 21:47 46.76516 -59.48214 38958 ft 523 kts 54°
2026-05-05 21:47 46.80309 -59.39155 38957 ft 523 kts 54°
2026-05-05 21:48 46.84097 -59.30078 38960 ft 523 kts 54°
2026-05-05 21:48 46.87858 -59.21037 38960 ft 523 kts 54°
2026-05-05 21:49 46.91641 -59.11915 38963 ft 523 kts 54°
2026-05-05 21:49 46.95383 -59.02857 38972 ft 522 kts 54°
2026-05-05 21:50 46.99140 -58.93736 38978 ft 523 kts 54°
2026-05-05 21:50 47.02893 -58.84592 38977 ft 523 kts 54°
2026-05-05 21:51 47.06627 -58.75465 38977 ft 523 kts 54°
2026-05-05 21:51 47.10361 -58.66308 38988 ft 523 kts 54°
2026-05-05 21:52 47.15978 -58.52474 38991 ft 527 kts 54°
2026-05-05 21:53 47.19685 -58.43308 38996 ft 527 kts 54°
2026-05-05 21:53 47.23420 -58.34037 39004 ft 527 kts 54°
2026-05-05 21:54 47.27165 -58.24709 39008 ft 529 kts 54°
2026-05-05 21:54 47.30856 -58.15489 38999 ft 531 kts 54°
2026-05-05 21:55 47.34589 -58.06129 39018 ft 529 kts 54°
2026-05-05 21:55 47.38303 -57.96784 39018 ft 529 kts 54°
2026-05-05 21:56 47.41970 -57.87525 39020 ft 527 kts 54°
2026-05-05 21:56 47.45670 -57.78150 39021 ft 527 kts 54°
2026-05-05 21:57 47.49340 -57.68822 39026 ft 527 kts 54°
2026-05-05 21:57 47.53012 -57.59457 39039 ft 527 kts 54°
2026-05-05 21:58 47.56687 -57.50049 39033 ft 528 kts 54°
2026-05-05 21:58 47.60355 -57.40628 39034 ft 528 kts 54°
2026-05-05 21:59 47.64013 -57.31196 39032 ft 528 kts 54°
2026-05-05 21:59 47.67649 -57.21790 39021 ft 528 kts 54°
2026-05-05 22:00 47.71304 -57.12301 39034 ft 529 kts 54°
2026-05-05 22:00 47.74954 -57.02792 39018 ft 529 kts 54°
2026-05-05 22:01 47.78566 -56.93348 39018 ft 529 kts 54°
2026-05-05 22:01 47.82191 -56.83835 38999 ft 527 kts 54°
2026-05-05 22:02 47.85801 -56.74329 38979 ft 526 kts 54°
2026-05-05 22:02 47.89376 -56.64882 38978 ft 526 kts 54°
2026-05-05 22:03 47.92968 -56.55358 38986 ft 526 kts 55°
2026-05-05 22:03 47.96538 -56.45855 38946 ft 524 kts 55°
2026-05-05 22:04 47.99494 -56.37960 38948 ft 523 kts 55°
2026-05-05 22:04 48.03616 -56.26916 38943 ft 523 kts 55°
2026-05-05 22:05 48.06560 -56.18998 38963 ft 523 kts 56°
2026-05-05 22:05 48.10089 -56.09476 38942 ft 522 kts 56°
2026-05-05 22:06 48.13605 -55.99953 38942 ft 521 kts 56°
2026-05-05 22:06 48.17088 -55.90487 38953 ft 521 kts 56°
2026-05-05 22:07 48.20569 -55.80995 38949 ft 521 kts 56°
2026-05-05 22:07 48.24053 -55.71458 38949 ft 521 kts 56°
2026-05-05 22:08 48.27531 -55.61903 38952 ft 521 kts 56°
2026-05-05 22:08 48.30983 -55.52383 38958 ft 521 kts 56°
2026-05-05 22:09 48.34451 -55.42788 38965 ft 521 kts 56°
2026-05-05 22:09 48.37885 -55.33250 38959 ft 522 kts 57°
2026-05-05 22:10 48.41337 -55.23624 38953 ft 522 kts 57°
2026-05-05 22:10 48.44781 -55.13989 38956 ft 522 kts 57°
2026-05-05 22:11 48.48202 -55.04380 38960 ft 525 kts 57°
2026-05-05 22:11 48.51666 -54.94622 38960 ft 528 kts 57°
2026-05-05 22:12 48.55126 -54.84832 38974 ft 528 kts 57°
2026-05-05 22:12 48.58562 -54.75068 38958 ft 528 kts 57°
2026-05-05 22:13 48.62005 -54.65252 38974 ft 529 kts 57°
2026-05-05 22:13 48.65450 -54.55395 38963 ft 529 kts 57°
2026-05-05 22:14 48.68883 -54.45532 38957 ft 529 kts 57°
2026-05-05 22:14 48.72272 -54.35759 38965 ft 529 kts 57°
2026-05-05 22:15 48.75681 -54.25885 38963 ft 527 kts 57°
2026-05-05 22:15 48.79078 -54.16015 38961 ft 526 kts 57°
2026-05-05 22:16 48.82442 -54.06204 38946 ft 526 kts 57°
2026-05-05 22:16 48.85821 -53.96314 38962 ft 526 kts 57°
2026-05-05 22:17 48.89162 -53.86493 38945 ft 525 kts 57°
2026-05-05 22:17 48.92512 -53.76607 38955 ft 525 kts 57°
2026-05-05 22:18 48.95859 -53.66692 38958 ft 525 kts 57°
2026-05-05 22:18 48.99175 -53.56833 38956 ft 525 kts 58°
2026-05-05 22:19 49.02504 -53.46893 38958 ft 526 kts 58°
2026-05-05 22:19 49.05809 -53.36992 38963 ft 526 kts 58°
2026-05-05 22:20 49.09131 -53.26998 38963 ft 526 kts 58°
2026-05-05 22:20 49.12419 -53.17070 38969 ft 526 kts 59°
2026-05-05 22:21 49.15715 -53.07073 38965 ft 525 kts 59°
2026-05-05 22:21 49.18981 -52.97131 38955 ft 525 kts 59°
2026-05-05 22:22 49.22255 -52.87124 38964 ft 525 kts 59°
2026-05-05 22:22 49.25521 -52.77106 38969 ft 525 kts 60°
2026-05-05 22:23 49.28752 -52.67152 38963 ft 525 kts 60°
2026-05-05 22:23 49.32000 -52.57106 38960 ft 525 kts 60°
2026-05-05 22:24 49.35224 -52.47094 38968 ft 525 kts 60°
2026-05-05 22:24 49.38452 -52.37029 38966 ft 525 kts 60°
2026-05-05 22:25 49.41673 -52.26947 38965 ft 525 kts 61°
2026-05-05 22:25 49.44881 -52.16862 38966 ft 525 kts 61°
2026-05-05 22:26 49.48067 -52.06808 38969 ft 525 kts 61°
2026-05-05 22:26 49.50945 -51.96474 38960 ft 528 kts 74°
2026-05-05 22:27 49.52268 -51.85344 38974 ft 528 kts 73°
2026-05-05 22:27 49.53422 -51.79995 38972 ft 524 kts 62°
2026-05-05 22:27 49.54952 -51.74891 38956 ft 524 kts 65°
2026-05-05 22:28 49.57605 -51.64445 38975 ft 529 kts 65°
2026-05-05 22:28 49.60329 -51.53880 38965 ft 529 kts 65°
2026-05-05 22:29 49.63046 -51.43302 38970 ft 530 kts 65°
2026-05-05 22:29 49.65733 -51.32758 38974 ft 530 kts 65°
2026-05-05 22:30 49.68423 -51.22132 38977 ft 530 kts 65°
2026-05-05 22:30 49.71081 -51.11580 38990 ft 530 kts 65°
2026-05-05 22:31 49.73751 -51.00932 38972 ft 532 kts 65°
2026-05-05 22:31 49.76405 -50.90298 38968 ft 532 kts 65°
2026-05-05 22:32 49.79068 -50.79571 38977 ft 533 kts 65°
2026-05-05 22:32 49.81702 -50.68920 38977 ft 533 kts 65°
2026-05-05 22:33 49.84343 -50.58185 38967 ft 533 kts 65°
2026-05-05 22:33 49.85656 -50.52822 39140 ft 530 kts 66°
2026-05-05 22:33 49.86956 -50.47497 39427 ft 525 kts 66°
2026-05-05 22:33 49.88240 -50.42217 39728 ft 520 kts 66°
2026-05-05 22:34 49.89520 -50.36949 39710 ft 523 kts 66°
2026-05-05 22:34 49.92073 -50.26421 39834 ft 524 kts 66°
2026-05-05 22:34 49.93356 -50.21110 39946 ft 524 kts 66°
2026-05-05 22:35 49.94636 -50.15801 39969 ft 525 kts 66°
2026-05-05 22:35 49.97193 -50.05161 39973 ft 529 kts 66°
2026-05-05 22:36 49.99317 -49.94152 39979 ft 533 kts 73°
2026-05-05 22:36 50.01008 -49.82989 39976 ft 533 kts 75°
2026-05-05 22:37 50.02604 -49.71720 39982 ft 533 kts 75°
2026-05-05 22:37 50.04188 -49.60457 39974 ft 532 kts 75°
2026-05-05 22:38 50.05770 -49.49223 39974 ft 532 kts 75°
2026-05-05 22:38 50.07338 -49.38064 39990 ft 532 kts 75°
2026-05-05 22:39 50.08908 -49.26808 39987 ft 532 kts 75°
2026-05-05 22:39 50.10466 -49.15552 39978 ft 531 kts 75°
2026-05-05 22:40 50.11999 -49.04389 39990 ft 531 kts 75°
2026-05-05 22:40 50.13533 -48.93128 39988 ft 531 kts 76°
2026-05-05 22:41 50.15054 -48.81874 39998 ft 531 kts 76°
2026-05-05 22:41 50.16566 -48.70604 39996 ft 531 kts 76°
2026-05-05 22:42 50.18059 -48.59383 39993 ft 530 kts 76°
2026-05-05 22:42 50.19547 -48.48114 39998 ft 530 kts 76°
2026-05-05 22:43 50.21020 -48.36875 40001 ft 530 kts 76°
2026-05-05 22:43 50.22489 -48.25568 39993 ft 530 kts 76°
2026-05-05 22:44 50.23947 -48.14255 40007 ft 530 kts 76°
2026-05-05 22:44 50.25383 -48.03026 40004 ft 528 kts 76°
2026-05-05 22:45 50.26804 -47.91817 40003 ft 528 kts 76°
2026-05-05 22:45 50.28221 -47.80557 40017 ft 527 kts 76°
2026-05-05 22:46 50.29627 -47.69281 40011 ft 527 kts 76°
2026-05-05 22:46 50.31023 -47.58001 40014 ft 527 kts 77°
2026-05-05 22:47 50.32397 -47.46796 40017 ft 527 kts 77°
2026-05-05 22:47 50.33770 -47.35507 40022 ft 527 kts 77°
2026-05-05 22:48 50.35122 -47.24290 40021 ft 527 kts 77°
2026-05-05 22:48 50.36473 -47.12991 40030 ft 527 kts 77°
2026-05-05 22:49 50.37813 -47.01684 40029 ft 527 kts 77°
2026-05-05 22:49 50.39132 -46.90456 40030 ft 527 kts 77°
2026-05-05 22:50 50.40452 -46.79121 40033 ft 527 kts 77°
2026-05-05 22:50 50.41752 -46.67856 40034 ft 527 kts 78°
2026-05-05 22:51 50.43051 -46.56505 40050 ft 528 kts 78°
2026-05-05 22:51 50.44329 -46.45232 40042 ft 527 kts 78°
2026-05-05 22:52 50.45601 -46.33906 40039 ft 527 kts 78°
2026-05-05 22:52 50.46865 -46.22548 40052 ft 527 kts 78°
2026-05-05 22:53 50.48110 -46.11255 40049 ft 527 kts 78°
2026-05-05 22:53 50.49345 -45.99955 40051 ft 527 kts 78°
2026-05-05 22:54 50.50575 -45.88593 40057 ft 526 kts 79°
2026-05-05 22:54 50.51791 -45.77243 40057 ft 526 kts 79°
2026-05-05 22:55 50.52991 -45.65935 40060 ft 526 kts 79°
2026-05-05 22:55 50.53984 -45.56502 40065 ft 526 kts 79°
2026-05-05 22:56 50.55169 -45.45139 40064 ft 526 kts 79°
2026-05-05 22:56 50.56344 -45.33762 40063 ft 526 kts 79°
2026-05-05 22:57 50.57500 -45.22454 40073 ft 526 kts 79°
2026-05-05 22:57 50.58653 -45.11062 40073 ft 526 kts 79°
2026-05-05 22:58 50.59794 -44.99665 40075 ft 527 kts 79°
2026-05-05 22:58 50.60921 -44.88310 40084 ft 527 kts 80°
2026-05-05 22:59 50.62040 -44.76899 40083 ft 527 kts 80°
2026-05-05 22:59 50.63149 -44.65482 40083 ft 527 kts 80°
2026-05-05 23:00 50.64785 -44.48413 40091 ft 527 kts 80°
2026-05-05 23:00 50.65867 -44.36971 40098 ft 527 kts 80°
2026-05-05 23:01 50.66930 -44.25616 40083 ft 526 kts 80°
2026-05-05 23:01 50.67986 -44.14202 40095 ft 526 kts 80°
2026-05-05 23:02 50.69035 -44.02736 40097 ft 526 kts 81°
2026-05-05 23:02 50.70064 -43.91361 40102 ft 526 kts 81°
2026-05-05 23:03 50.71089 -43.79910 40100 ft 526 kts 81°
2026-05-05 23:03 50.72101 -43.68475 40100 ft 525 kts 81°
2026-05-05 23:04 50.73093 -43.57132 40105 ft 524 kts 81°
2026-05-05 23:04 50.74082 -43.45688 40102 ft 524 kts 81°
2026-05-05 23:05 50.75053 -43.34327 40100 ft 525 kts 81°
2026-05-05 23:05 50.76020 -43.22874 40111 ft 525 kts 81°
2026-05-05 23:06 50.76969 -43.11496 40112 ft 525 kts 81°
2026-05-05 23:06 50.77912 -43.00050 40113 ft 525 kts 82°
2026-05-05 23:07 50.78844 -42.88603 40129 ft 525 kts 82°
2026-05-05 23:07 50.79764 -42.77150 40128 ft 525 kts 82°
2026-05-05 23:08 50.80668 -42.65764 40118 ft 524 kts 82°
2026-05-05 23:08 50.81564 -42.54330 40127 ft 524 kts 82°
2026-05-05 23:09 50.82451 -42.42857 40123 ft 524 kts 82°
2026-05-05 23:09 50.83319 -42.31495 40122 ft 524 kts 82°
2026-05-05 23:10 50.84182 -42.20042 40122 ft 524 kts 82°
2026-05-05 23:10 50.85034 -42.08588 40126 ft 524 kts 83°
2026-05-05 23:11 50.85874 -41.97132 40127 ft 524 kts 83°
2026-05-05 23:11 50.86703 -41.85670 40128 ft 524 kts 83°
2026-05-05 23:12 50.87514 -41.74299 40141 ft 523 kts 83°
2026-05-05 23:12 50.88320 -41.62832 40139 ft 523 kts 83°
2026-05-05 23:13 50.89113 -41.51384 40143 ft 524 kts 83°
2026-05-05 23:13 50.89890 -41.40017 40145 ft 523 kts 83°
2026-05-05 23:14 50.90664 -41.28525 40144 ft 523 kts 83°
2026-05-05 23:14 50.91422 -41.17097 40136 ft 523 kts 83°
2026-05-05 23:15 50.92173 -41.05610 40149 ft 523 kts 83°
2026-05-05 23:15 50.92908 -40.94192 40152 ft 522 kts 84°
2026-05-05 23:16 50.93628 -40.82817 40147 ft 522 kts 84°
2026-05-05 23:16 50.94340 -40.71395 40153 ft 522 kts 84°
2026-05-05 23:17 50.95043 -40.59930 40158 ft 522 kts 84°
2026-05-05 23:17 50.95737 -40.48439 40162 ft 522 kts 84°
2026-05-05 23:18 50.96415 -40.37019 40162 ft 522 kts 84°
2026-05-05 23:18 50.97085 -40.25541 40153 ft 522 kts 84°
2026-05-05 23:19 50.97744 -40.14054 40168 ft 522 kts 84°
2026-05-05 23:19 50.98394 -40.02650 40160 ft 522 kts 84°
2026-05-05 23:20 50.99734 -39.91287 40164 ft 523 kts 77°
2026-05-05 23:20 51.01335 -39.80034 40176 ft 524 kts 76°
2026-05-05 23:21 51.02972 -39.68761 40175 ft 524 kts 76°
2026-05-05 23:21 51.04580 -39.57544 40176 ft 524 kts 77°
2026-05-05 23:22 51.06177 -39.46240 40179 ft 524 kts 77°
2026-05-05 23:22 51.07761 -39.34922 40182 ft 524 kts 77°
2026-05-05 23:23 51.09324 -39.23666 40181 ft 523 kts 77°
2026-05-05 23:23 51.10884 -39.12348 40187 ft 523 kts 77°
2026-05-05 23:24 51.12435 -39.01011 40183 ft 523 kts 77°
2026-05-05 23:24 51.13964 -38.89743 40185 ft 524 kts 77°
2026-05-05 23:25 51.15489 -38.78425 40192 ft 524 kts 77°
2026-05-05 23:25 51.17007 -38.67069 40192 ft 524 kts 77°
2026-05-05 23:26 51.18513 -38.55714 40192 ft 524 kts 77°
2026-05-05 23:26 51.19997 -38.44434 40197 ft 524 kts 77°
2026-05-05 23:27 51.21479 -38.33079 40198 ft 522 kts 78°
2026-05-05 23:27 51.22948 -38.21724 40198 ft 521 kts 78°
2026-05-05 23:28 51.24394 -38.10458 40205 ft 521 kts 78°
2026-05-05 23:28 51.25835 -37.99150 40210 ft 521 kts 78°
2026-05-05 23:29 51.27271 -37.87778 40208 ft 520 kts 78°
2026-05-05 23:29 51.28684 -37.76497 40201 ft 520 kts 78°
2026-05-05 23:30 51.30093 -37.65153 40206 ft 521 kts 78°
2026-05-05 23:30 51.31485 -37.53856 40210 ft 521 kts 78°
2026-05-05 23:31 51.32877 -37.42463 40204 ft 521 kts 78°
2026-05-05 23:31 51.34256 -37.31075 40209 ft 521 kts 78°
2026-05-05 23:32 51.35615 -37.19753 40211 ft 521 kts 79°
2026-05-05 23:32 51.36971 -37.08363 40215 ft 521 kts 79°
2026-05-05 23:33 51.38311 -36.97007 40214 ft 521 kts 79°
2026-05-05 23:33 51.39642 -36.85626 40214 ft 520 kts 79°
2026-05-05 23:34 51.40953 -36.74311 40215 ft 519 kts 79°
2026-05-05 23:34 51.42261 -36.62926 40205 ft 519 kts 79°
2026-05-05 23:35 51.43552 -36.51582 40217 ft 520 kts 79°
2026-05-05 23:35 51.44840 -36.40176 40217 ft 520 kts 79°
2026-05-05 23:36 51.46117 -36.28756 40214 ft 520 kts 79°
2026-05-05 23:36 51.47382 -36.17339 40220 ft 520 kts 79°
2026-05-05 23:37 51.48637 -36.05898 40220 ft 520 kts 79°
2026-05-05 23:37 51.49871 -35.94546 40218 ft 520 kts 79°
2026-05-05 23:38 51.51099 -35.83140 40224 ft 519 kts 79°
2026-05-05 23:38 51.52311 -35.71773 40222 ft 519 kts 80°
2026-05-05 23:39 51.53518 -35.60347 40225 ft 518 kts 80°
2026-05-05 23:39 51.54716 -35.48890 40223 ft 518 kts 80°
2026-05-05 23:40 51.55893 -35.37516 40217 ft 519 kts 80°
2026-05-05 23:40 51.57065 -35.26099 40224 ft 517 kts 80°
2026-05-05 23:41 51.58217 -35.14751 40224 ft 517 kts 80°
2026-05-05 23:41 51.59365 -35.03326 40223 ft 517 kts 80°
2026-05-05 23:42 51.60506 -34.91859 40221 ft 517 kts 80°
2026-05-05 23:42 51.61624 -34.80509 40219 ft 516 kts 81°
2026-05-05 23:43 51.62737 -34.69085 40222 ft 516 kts 81°
2026-05-05 23:43 51.63834 -34.57708 40219 ft 516 kts 81°
2026-05-05 23:44 51.64923 -34.46294 40214 ft 516 kts 81°
2026-05-05 23:44 51.66003 -34.34853 40217 ft 515 kts 81°
2026-05-05 23:45 51.67063 -34.23503 40205 ft 515 kts 81°
2026-05-05 23:45 51.68116 -34.12102 40211 ft 515 kts 81°
2026-05-05 23:46 51.69153 -34.00754 40204 ft 515 kts 81°
2026-05-05 23:46 51.70187 -33.89316 40204 ft 515 kts 81°
2026-05-05 23:47 51.71210 -33.77869 40196 ft 515 kts 82°
2026-05-05 23:47 51.72215 -33.66486 40203 ft 515 kts 82°
2026-05-05 23:48 51.73211 -33.55088 40195 ft 515 kts 82°
2026-05-05 23:48 51.74199 -33.43641 40193 ft 515 kts 82°
2026-05-05 23:49 51.75177 -33.32179 40190 ft 515 kts 82°
2026-05-05 23:49 51.75981 -33.22645 40188 ft 515 kts 82°
2026-05-05 23:50 51.77095 -33.09284 40187 ft 515 kts 82°
2026-05-05 23:50 51.77884 -32.99715 40185 ft 516 kts 82°
2026-05-05 23:51 51.78820 -32.88220 40184 ft 517 kts 82°
2026-05-05 23:51 51.79746 -32.76707 40180 ft 516 kts 82°
2026-05-05 23:52 51.80662 -32.65181 40181 ft 516 kts 82°
2026-05-05 23:52 51.81561 -32.53726 40178 ft 516 kts 82°
2026-05-05 23:53 51.82452 -32.42211 40178 ft 516 kts 82°
2026-05-05 23:53 51.83329 -32.30735 40178 ft 516 kts 82°
2026-05-05 23:54 51.84199 -32.19205 40178 ft 515 kts 82°
2026-05-05 23:54 51.85055 -32.07702 40178 ft 515 kts 82°
2026-05-05 23:55 51.85901 -31.96181 40182 ft 515 kts 82°
2026-05-05 23:55 51.86729 -31.84732 40173 ft 515 kts 82°
2026-05-05 23:56 51.87547 -31.73275 40181 ft 516 kts 82°
2026-05-05 23:56 51.88358 -31.61757 40181 ft 514 kts 82°
2026-05-05 23:57 51.89154 -31.50297 40184 ft 514 kts 83°
2026-05-05 23:57 51.89941 -31.38795 40184 ft 514 kts 83°
2026-05-05 23:58 51.90713 -31.27344 40185 ft 514 kts 83°
2026-05-05 23:58 51.91479 -31.15815 40184 ft 514 kts 83°
2026-05-05 23:59 51.92228 -31.04357 40189 ft 514 kts 83°
2026-05-05 23:59 51.92972 -30.92817 40189 ft 514 kts 83°
2026-05-06 00:00 51.93699 -30.81351 40194 ft 514 kts 83°
2026-05-06 00:00 51.94420 -30.69809 40196 ft 513 kts 83°
2026-05-06 00:01 51.95127 -30.58304 40193 ft 512 kts 83°
2026-05-06 00:01 51.95811 -30.46994 40202 ft 511 kts 83°
2026-05-06 00:02 51.96495 -30.35484 40206 ft 511 kts 83°
2026-05-06 00:02 51.97161 -30.24091 40208 ft 511 kts 83°
2026-05-06 00:03 51.97821 -30.12616 40209 ft 511 kts 83°
2026-05-06 00:03 51.98508 -30.01197 40215 ft 510 kts 80°
2026-05-06 00:04 51.99906 -29.90033 40210 ft 510 kts 76°
2026-05-06 00:04 52.01510 -29.78784 40219 ft 510 kts 75°
2026-05-06 00:05 52.03940 -29.61950 40219 ft 510 kts 75°
2026-05-06 00:06 52.05521 -29.50801 40220 ft 509 kts 75°
2026-05-06 00:06 52.07096 -29.39566 40227 ft 509 kts 75°
2026-05-06 00:07 52.08656 -29.28346 40230 ft 509 kts 76°
2026-05-06 00:07 52.10198 -29.17172 40231 ft 508 kts 75°
2026-05-06 00:08 52.11733 -29.05970 40226 ft 506 kts 75°
2026-05-06 00:08 52.13248 -28.94827 40235 ft 507 kts 76°
2026-05-06 00:09 52.14760 -28.83625 40235 ft 507 kts 76°
2026-05-06 00:09 52.16265 -28.72385 40243 ft 507 kts 76°
2026-05-06 00:10 52.17746 -28.61241 40242 ft 506 kts 76°
2026-05-06 00:10 52.19227 -28.50009 40244 ft 505 kts 76°
2026-05-06 00:11 52.20686 -28.38855 40241 ft 505 kts 76°
2026-05-06 00:11 52.22144 -28.27624 40244 ft 505 kts 76°
2026-05-06 00:12 52.23580 -28.16472 40245 ft 505 kts 76°
2026-05-06 00:12 52.25011 -28.05265 40246 ft 504 kts 76°
2026-05-06 00:13 52.26428 -27.94081 40250 ft 504 kts 76°
2026-05-06 00:13 52.27833 -27.82904 40249 ft 504 kts 76°
2026-05-06 00:14 52.29232 -27.71676 40256 ft 504 kts 76°
2026-05-06 00:14 52.30618 -27.60468 40251 ft 502 kts 76°
2026-05-06 00:15 52.31981 -27.49347 40255 ft 501 kts 76°
2026-05-06 00:15 52.33341 -27.38163 40255 ft 501 kts 76°
2026-05-06 00:16 52.34682 -27.27037 40255 ft 501 kts 76°
2026-05-06 00:16 52.36018 -27.15864 40254 ft 501 kts 76°
2026-05-06 00:17 52.37339 -27.04717 40252 ft 500 kts 76°
2026-05-06 00:17 52.38648 -26.93577 40254 ft 501 kts 76°
2026-05-06 00:18 52.39946 -26.82437 40258 ft 501 kts 76°
2026-05-06 00:18 52.41239 -26.71239 40259 ft 501 kts 76°
2026-05-06 00:19 52.42520 -26.60049 40253 ft 502 kts 76°
2026-05-06 00:19 52.43794 -26.48826 40257 ft 502 kts 76°
2026-05-06 00:20 52.45059 -26.37579 40256 ft 502 kts 76°
2026-05-06 00:20 52.46307 -26.26384 40254 ft 502 kts 76°
2026-05-06 00:21 52.47553 -26.15101 40250 ft 502 kts 76°
2026-05-06 00:21 52.48789 -26.03814 40251 ft 502 kts 76°
2026-05-06 00:22 52.50002 -25.92623 40256 ft 502 kts 76°
2026-05-06 00:22 52.51216 -25.81319 40254 ft 502 kts 77°
2026-05-06 00:23 52.52419 -25.70012 40256 ft 502 kts 76°
2026-05-06 00:23 52.53607 -25.58743 40253 ft 502 kts 76°
2026-05-06 00:24 52.54784 -25.47471 40251 ft 503 kts 77°
2026-05-06 00:24 52.55954 -25.36152 40246 ft 503 kts 77°
2026-05-06 00:25 52.57119 -25.24772 40258 ft 503 kts 76°
2026-05-06 00:25 52.58261 -25.13503 40250 ft 502 kts 77°
2026-05-06 00:26 52.59403 -25.02130 40251 ft 502 kts 77°
2026-05-06 00:26 52.60531 -24.90782 40245 ft 502 kts 77°
2026-05-06 00:27 52.61642 -24.79478 40250 ft 502 kts 77°
2026-05-06 00:27 52.62750 -24.68096 40250 ft 502 kts 77°
2026-05-06 00:28 52.63836 -24.56820 40242 ft 501 kts 77°
2026-05-06 00:28 52.64913 -24.45530 40241 ft 501 kts 77°
2026-05-06 00:29 52.65985 -24.34174 40240 ft 501 kts 77°
2026-05-06 00:29 52.67040 -24.22870 40255 ft 501 kts 77°
2026-05-06 00:30 52.68088 -24.11511 40248 ft 500 kts 77°
2026-05-06 00:30 52.69118 -24.00235 40244 ft 500 kts 77°
2026-05-06 00:31 52.70145 -23.88870 40233 ft 500 kts 77°
2026-05-06 00:31 52.71154 -23.77583 40234 ft 500 kts 77°